I1SXT-5 Weather Reports


time (UTC)temp
C
wind
direction
speed
KPH
gust
KPH
rain 1hr
cm
rain 24hr
cm
rain mn
cm
humidity
%
barometer
mb
20260902142333 -17 0.0 0.0 0.00 0.00 0.00 53 1016.9
20260902134824 -17 0.0 0.0 0.00 0.00 0.00 53 1017.2
20260902124308 -17 0.0 0.0 0.00 0.00 0.00 55 1017.7
20260902122305 -17 0.0 0.0 0.00 0.00 0.00 55 1017.9
20260902103236 -17 0.0 0.0 0.00 0.00 0.00 54 1018.5
20260902100228 -17 0.0 0.0 0.00 0.00 0.00 54 1018.6
20260902094223 -17 0.0 0.0 0.00 0.00 0.00 55 1018.5
20260902082203 -17 0.0 0.0 0.00 0.00 0.00 50 1018.4
20260902075657 -17 0.0 0.0 0.00 0.00 0.00 53 1018.2
20260902075156 -17 0.0 0.0 0.00 0.00 0.00 54 1018.2
20260902074153 -17 0.0 0.0 0.00 0.00 0.00 55 1018.1
20260902064639 -17 0.0 0.0 0.00 0.00 0.00 62 1018.3
20260902063637 -17 0.0 0.0 0.00 0.00 0.00 61 1018.4
20260902054124 -17 0.0 0.0 0.00 0.00 0.00 68 1018.4
20260902045111 -17 0.0 0.0 0.00 0.00 0.00 67 1017.9
20260902044610 -17 0.0 0.0 0.00 0.00 0.00 67 1018.0
20260902041101 -17 0.0 0.0 0.00 0.00 0.00 66 1017.8
20260902040059 -17 0.0 0.0 0.00 0.00 0.00 67 1017.8
20260902035557 -17 0.0 0.0 0.00 0.00 0.00 67 1017.7
20260902035056 -17 0.0 0.0 0.00 0.00 0.00 67 1017.8
20260902034555 -17 0.0 0.0 0.00 0.00 0.00 67 1017.7
20260902033051 -17 0.0 0.0 0.00 0.00 0.00 67 1017.8
20260902032550 -17 0.0 0.0 0.00 0.00 0.00 66 1017.9
20260902032048 -17 0.0 0.0 0.00 0.00 0.00 66 1017.8
20260902025041 -17 0.0 0.0 0.00 0.00 0.00 65 1017.8
20260902023036 -17 0.0 0.0 0.00 0.00 0.00 66 1017.8
20260902022535 -17 0.0 0.0 0.00 0.00 0.00 66 1017.8
20260902020029 -17 0.0 0.0 0.00 0.00 0.00 65 1017.8
20260902015527 -17 0.0 0.0 0.00 0.00 0.00 65 1017.9
20260902014024 -17 0.0 0.0 0.00 0.00 0.00 64 1017.8
20260902013021 -17 0.0 0.0 0.00 0.00 0.00 64 1017.8
20260902010515 -17 0.0 0.0 0.00 0.00 0.00 64 1017.6
20260902005512 -17 0.0 0.0 0.00 0.00 0.00 63 1017.6
20260902001001 -17 0.0 0.0 0.00 0.00 0.00 62 1017.8
20260902000500 -17 0.0 0.0 0.00 0.00 0.00 62 1017.7
20260901235457 -17 0.0 0.0 0.00 0.00 0.00 64 1017.8
20260901234455 -17 0.0 0.0 0.00 0.00 0.00 65 1017.9
20260901233452 -17 0.0 0.0 0.00 0.00 0.00 63 1017.8
20260901232450 -17 0.0 0.0 0.00 0.00 0.00 64 1017.9
20260901225442 -17 0.0 0.0 0.00 0.00 0.00 62 1017.9
20260901221934 -17 0.0 0.0 0.00 0.00 0.00 61 1017.8
20260901212420 -17 0.0 0.0 0.00 0.00 0.00 60 1017.8
20260901210916 -17 0.0 0.0 0.00 0.00 0.00 60 1017.7
20260901210415 -17 0.0 0.0 0.00 0.00 0.00 60 1017.7
20260901205914 -17 0.0 0.0 0.00 0.00 0.00 61 1017.7
20260901205412 -17 0.0 0.0 0.00 0.00 0.00 61 1017.7
20260901202906 -17 0.0 0.0 0.00 0.00 0.00 62 1017.8
20260901201402 -17 0.0 0.0 0.00 0.00 0.00 63 1017.8
20260901194355 -17 0.0 0.0 0.00 0.00 0.00 64 1017.5
20260901192350 -17 0.0 0.0 0.00 0.00 0.00 63 1017.4
20260901191347 -17 0.0 0.0 0.00 0.00 0.00 63 1017.2
20260901183839 -17 0.0 0.0 0.00 0.00 0.00 61 1016.6
20260901180330 -17 0.0 0.0 0.00 0.00 0.00 60 1016.4
20260901173824 -17 0.0 0.0 0.00 0.00 0.00 58 1016.1
20260901171819 -17 0.0 0.0 0.00 0.00 0.00 55 1016.1
20260901165313 -17 0.0 0.0 0.00 0.00 0.00 53 1016.0
20260901164310 -17 0.0 0.0 0.00 0.00 0.00 52 1016.0
20260901163809 -17 0.0 0.0 0.00 0.00 0.00 52 1016.0
20260901161303 -17 0.0 0.0 0.00 0.00 0.00 52 1016.1
20260901150747 -17 0.0 0.0 0.00 0.00 0.00 50 1016.3